Flag for Germany Weather past 2 weeks in Celle, Lower Saxony, Germany

Now
72 °F

Partly sunny.


Feels Like: 74 °F
Forecast: 62 / 80 °F
Wind: 3 mph from South

Location: Celle Airport

Current Time: Jul 26, 2014 at 1:27:58 PM

Latest Report: Jul 26, 2014 at 12:20 PM


Visibility: N/A

Pressure: 29.95 "Hg

Humidity: 73%

Dew point: 63 °F

Location of CelleLocation

Historic Weather in Celle — Graph

°F

Celle temperature yesterday

Maximum temperature yesterday: 70 °F (at 3:48 PM)
Minimum temperature yesterday: 61 °F (at 12:20 AM)
Average temperature yesterday: 64 °F

Past Weeks' High & Low Weather Summary

 TemperatureHumidityPressure
High91 °F (Jul 19, 4:20 PM)100% (Jul 14, 2:20 AM)30.18 "Hg (Jul 14, 2:20 AM)
Low52 °F (Jul 12, 4:20 AM)26% (Jul 19, 4:20 PM)29.71 "Hg (Jul 13, 2:48 PM)
Average70 °F68%29.98 "Hg
* Reported Jul 11 12:20 PM — Jul 26 12:20 PM, Celle, Weather by CustomWeather, © 2014

Note: Actual official high and low records may vary slightly from our data, if they occured in-between our weather recording intervals... More about our weather records

Advertising

Celle weather history for previous 24 hours

 ConditionsComfort  
Time TempWeatherWind HumidityBarometerVisibility
12:20 PM
Jul 26
72 °FPartly sunny.3 mph73%29.95 "HgN/A
11:20 AM72 °FPartly sunny.5 mph78%29.95 "HgN/A
10:20 AM68 °FBroken clouds.6 mph88%29.95 "Hg4 mi
9:20 AM66 °FFog.3 mph94%29.95 "Hg2 mi
8:47 AM66 °FFog.3 mph88%29.95 "Hg2 mi
8:20 AM64 °FFog.3 mph100%29.92 "Hg1 mi
7:20 AM64 °FFog.3 mph94%29.95 "Hg1 mi
6:55 AM64 °FFog.3 mph100%29.92 "Hg1 mi
6:20 AM64 °FFog.2 mph100%29.92 "Hg0 mi
6:01 AM64 °FFog.2 mph100%29.92 "Hg0 mi
5:20 AM64 °FFog.1 mph94%29.92 "Hg1 mi
4:20 AM64 °FFog.No wind94%29.92 "Hg2 mi
3:20 AM64 °FFog.3 mph94%29.92 "Hg2 mi
2:20 AM64 °FFog.2 mph94%29.92 "Hg2 mi
1:20 AM64 °FFog.No wind94%29.92 "Hg3 mi
12:20 AM64 °FFog.1 mph94%29.92 "Hg3 mi
11:20 PM
Jul 25
64 °FLight rain. Fog.1 mph94%29.92 "Hg3 mi
10:20 PM63 °FLight rain. Fog.1 mph100%29.92 "Hg3 mi
9:20 PM64 °FLight rain. Fog.1 mph94%29.92 "Hg3 mi
8:20 PM64 °FDrizzle. Fog.2 mph100%29.92 "Hg3 mi
7:20 PM64 °FLight rain. Partly sunny.6 mph94%29.92 "Hg4 mi
6:20 PM68 °FRain. Overcast.3 mph94%29.95 "Hg4 mi
6:04 PM68 °FRain. Fog.3 mph94%29.95 "Hg3 mi
5:20 PM70 °FLight rain. Overcast.2 mph88%29.95 "Hg5 mi
4:20 PM70 °FLight rain. Partly sunny.7 mph83%29.95 "Hg5 mi
3:48 PM70 °FLight rain. Mostly cloudy.5 mph83%29.95 "Hg4 mi
3:20 PM68 °FBroken clouds.3 mph88%29.95 "Hg4 mi
2:20 PM66 °FBroken clouds.3 mph94%29.98 "Hg4 mi
1:52 PM66 °FPartly sunny.6 mph94%29.98 "Hg4 mi
1:20 PM66 °FFog.5 mph94%29.98 "Hg3 mi
1:00 PM66 °FRain. Fog.3 mph94%29.98 "Hg2 mi
Weather by CustomWeather, © 2014

See weather overviewHow to use our weather pages